Tracking 19562 objects as of 24-Mar-2019
HD Live streaming from Space Station
objects crossing your sky now

OPS 6630 (2)

Track OPS 6630 (2) now!
10-day predictions
OPS 6630 (2) is classified as:


NORAD ID: 6938
Int'l Code: 1973-088D
Perigee: 1,422.4 km
Apogee: 1,461.9 km
Inclination: 96.9 °
Period: 114.6 minutes
Semi major axis: 7813 km
RCS: 0.3492 m2 (medium)
Launch date: November 10, 1973
Source: United States (US)
Launch site: AIR FORCE WESTERN TEST RANGE (AFWTR)
aabbcc
Your satellite tracking list
Your tracking list is empty




NASA's NSSDC Master Catalog

Two Line Element Set (TLE):
1  6938U 73088D   19081.93977248 -.00000013 +00000-0 +35278-4 0  9994
2  6938 096.9300 114.2915 0025231 259.1441 219.2102 12.57083005081015
Source of the keplerian elements: AFSPC